STARLINK-32207 (60259 NORAD) Tracking and Keplerian Element Data

This shows tracking and keplerian element data for the satellite.

Feedback or suggestion? Click here.




ElementValue
Catalog60259
NameSTARLINK-32207
Epoch Orbit1312
Epoch Day286.68812232
Epoch Year2024
RAAN278.9814
Inclination53.1573
Eccentricity0.0003091
Argument of Perigee87.3783
Mean Anonmoly272.7573
Mean Motion15.34218295
Decay Rate0.0002456
L11 60259U 24131E 24286.68812232 .00024560 00000+0 73983-3 0 9996
L22 60259 53.1573 278.9814 0003091 87.3783 272.7573 15.34218295 13126



Live tracking and technical data element details for STARLINK-32207 (NORAD 60259). STARLINK-32207 can be tracked NOW for your location showing map with azimuth and elevation plus other details from your city location.







IsCatalogInMostPopularTable: catalog: 60259, numindb: 10
Update: records affected: 1



GetName: 60259 STARLINK-32207

Hit Count: updated at: Thu, 23 Jan 2025 15:21:58 GMT